D2/ATLACOM-1 (48922 NORAD) Tracking and Keplerian Element Data

This shows tracking and keplerian element data for the satellite.

Feedback or suggestion? Click here.




ElementValue
Catalog48922
NameD2/ATLACOM-1
Epoch Orbit1396
Epoch Day269.16464355
Epoch Year2021
RAAN36.6581
Inclination97.5169
Eccentricity0.0012056
Argument of Perigee282.6784
Mean Anonmoly200.493
Mean Motion15.13314885
Decay Rate2.098E-05
L11 48922U 21059AV 21269.16464355 .00002098 00000-0 12135-3 0 9990
L22 48922 97.5169 36.6581 0012056 282.6784 200.4930 15.13314885 13960

Live tracking and technical data element details for D2/ATLACOM-1 (NORAD 48922). D2/ATLACOM-1 can be tracked NOW for your location showing map with azimuth and elevation plus other details from your city location.

Track the satellite on the map from your city or location and see movement details for azimuth, elevation, latitude, longitude, range, height, and movement on the map or in text.







IsCatalogInMostPopularTable: catalog: 48922, numindb: 12
Update: records affected: 1



GetName: 48922 D2/ATLACOM-1

Hit Count: updated at: Sun, 26 Sep 2021 15:14:15 GMT